Regional Weather Roundup
Issued by NWS

Home | Current Version | Previous Version | Text Only | Print | Product List | Glossary On
Versions: 1 2 3 4 5 6 7 8 9 10 11 12 13 14 15 16 17 18 19 20 21 22 23 24 25 26 27 28 29 30 31 32 33 34 35 36 37 38 39 40 41 42 43 44 45 46 47 48 49 50
000
ASUS44 KJAN 240010
RWRMS

MISSISSIPPI HOURLY WEATHER ROUNDUP
NATIONAL WEATHER SERVICE JACKSON MS
700 PM CDT TUE SEP 23 2014

NOTE: "FAIR: INDICATES FEW OR NO CLOUDS BELOW 12,000 FEET WITH NO
SIGNIFICANT WEATHER AND/OR OBSTRUCTIONS TO VISIBILITY.

MSZ001>002-007>008-010>013-018>021-025>028-034>036-240100-
NORTHWEST MISSISSIPPI

CITY           SKY/WX    TMP DP  RH WIND       PRES   REMARKS
CLARKSDALE     FAIR      73  50  43 NE6       30.14S
CLEVELAND      FAIR      73  50  44 NE6       30.11R
GREENWOOD      CLEAR     69  58  67 N5        30.11R
6HR MIN TEMP:  69; 6HR MAX TEMP:  83;

GREENVILLE     CLEAR     75  40  28 NE7       30.10R
6HR MIN TEMP:  75; 6HR MAX TEMP:  86;

GRENADA        FAIR      72  54  53 N6        30.12S
OLIVE BRANCH   PTCLDY    70  48  46 NE7       30.16S
OXFORD         FAIR      66  59  77 CALM      30.15S
TUNICA         CLEAR     66  54  63 N5        30.15R
$$

MSZ003>006-009-014>017-022>024-029>033-037>039-240100-
NORTHEAST MISSISSIPPI

CITY           SKY/WX    TMP DP  RH WIND       PRES   REMARKS
COLUMBUS AFB   CLEAR     75  56  51 NE3       30.11S
6HR MIN TEMP:  75; 6HR MAX TEMP:  83;

CORINTH        FAIR      70  54  56 N5        30.15R
STARKVILLE     FAIR      75  52  43 NE3       30.11R
TUPELO         CLEAR     73  57  57 NE7       30.13S
6HR MIN TEMP:  73; 6HR MAX TEMP:  80;

$$

MSZ040-058-240100-
CENTRAL MISSISSIPPI

CITY           SKY/WX    TMP DP  RH WIND       PRES   REMARKS
JACKSON INTL   CLEAR     76  57  51 CALM      30.09R
6HR MIN TEMP:  76; 6HR MAX TEMP:  84;

JACKSON HAWKNS CLEAR     78  54  43 CALM      30.09S
6HR MIN TEMP:  78; 6HR MAX TEMP:  83;

MERIDIAN KEY   CLEAR     77  52  41 NE6       30.08S
6HR MIN TEMP:  77; 6HR MAX TEMP:  85;

MERIDIAN NAS   CLEAR     77  52  41 NE5       30.10R
6HR MIN TEMP:  77; 6HR MAX TEMP:  86;

RAYMOND        FAIR      72  66  83 N3        30.09S
VICKSBURG      CLEAR     71  55  56 NE5       30.09R
6HR MIN TEMP:  71; 6HR MAX TEMP:  83;

$$

MSZ059>079-240100-
SOUTH MISSISSIPPI

CITY           SKY/WX    TMP DP  RH WIND       PRES   REMARKS
BROOKHAVEN     FAIR      75  57  53 CALM      30.10R
COLUMBIA       FAIR      73  61  64 NE3       30.05S
HATTIESBURG    CLEAR     78  57  48 CALM      30.07R
6HR MIN TEMP:  78; 6HR MAX TEMP:  85;

MCCOMB         CLEAR     78  54  43 NE3       30.07R
6HR MIN TEMP:  78; 6HR MAX TEMP:  84;

NATCHEZ        CLEAR     72  57  60 CALM      30.09R
6HR MIN TEMP:  72; 6HR MAX TEMP:  81;

PINE BELT      CLEAR     75  55  50 MISG      30.09S
$$

MSZ080>082-240100-
COASTAL MISSISSIPPI

CITY           SKY/WX    TMP DP  RH WIND       PRES   REMARKS
BAY ST LOUIS   CLEAR     73  57  56 NE3       30.03S
BILOXI         CLEAR     79  56  45 NE7       30.04R
6HR MIN TEMP:  79; 6HR MAX TEMP:  87;

PASCAGOULA     CLEAR     74  54  49 NE5       30.04R
6HR MIN TEMP:  74; 6HR MAX TEMP:  86;

GULFPORT       CLEAR     79  56  45 NE7       30.03R
6HR MIN TEMP:  79; 6HR MAX TEMP:  86;

$$


USA.gov is the U.S. government's official web portal to all federal, state and local government web resources and services.